Погода в Монополи

Италия     40°56′53″N   17°17′26″E
темп.,
°C
ветер,
м/с
пор.,
м/с
влажн.,
%
обл.,
%
осадки,
мм/ч
давл.,
гПа
погр.,
м
26 сентября, вс
вс2623:00+22ю22544 0.0 102289
02:00+22юв225437 0.0 1021107
05:00+21ююв11535 0.0 1021100
08:00+22ююв11515 0.0 1021133
11:00+24в32539 0.0 1021306
14:00+24в435688 0.0 1020259
17:00+24вюв445977 0.0 1019224
20:00+23юв45652 0.0 1018120
27 сентября, пн
пн2723:00+23ю1264100 0.0 101823
02:00+23ююз2259100 0.0 101714
05:00+23ююв2257100 0.0 101611
08:00+24юз115666 0.0 101627
11:00+26всв334892 0.0 1016229
14:00+26в5555100 0.0 1014176
17:00+25вюв566772 0.0 1013210
20:00+24св127112 0.0 101449
28 сентября, вт
вт2823:00+23ссз5680100 0.0 1015259
02:00+21ссз5782100 0.0 1016383
05:00+22ссз578092 0.0 1015522
08:00+22ссз6677100 0.0 1016632
11:00+23ссз6777100 0.0 1017714
14:00+23ссз897576 0.0 1016756
17:00+22ссз787890 0.0 1015611
20:00+22ссз56825 0.0 1016431
29 сентября, ср
ср2923:00+22ссз46833 0.0 1016332
02:00+22ссз45845 0.0 1016314
05:00+21сз348075 0.0 1015234
08:00+22зсз1275100 0.0 1016188
11:00+23ссв2169100 0.0 1017368
14:00+23св3272100 0.0 1016370
17:00+23всв3371100 0.0 1015318
20:00+21вюв22775 0.4 1016126
30 сентября, чт
чт3023:00+21з11755 0.9 101687
02:00+21ссз348098 0.9 1016296
05:00+21с4580100 1.6 1016495
08:00+21сз3379100 3.0 1017340
11:00+20ссз878487 0.3 1018594
14:00+20ссз888686 1.6 1017678
17:00+19сз8989100 2.7 1017646
20:00+19з6884100 3.1 1017515